Regional Weather Roundup
Issued by NWS

Home | Current Version | Previous Version | Graphics & Text | Print | Product List | Glossary On
Versions: 1 2 3 4 5 6 7 8 9 10 11 12 13 14 15 16 17 18 19 20 21 22 23 24 25 26 27 28 29 30 31 32 33 34 35 36 37 38 39 40 41 42 43 44 45 46 47 48 49 50
000
ASUS43 KFSD 231602
RWRSD

WEATHER ROUNDUP FOR SOUTH DAKOTA
NATIONAL WEATHER SERVICE SIOUX FALLS SD
1100 AM CDT WED AUG 23 2017

NOTE: "FAIR" INDICATES FEW OR NO CLOUDS BELOW 12,000 FEET WITH NO
SIGNIFICANT WEATHER AND/OR OBSTRUCTIONS TO VISIBILITY.


SDZ001>005-009-010-012>017-231700-
NORTHWEST AND NORTH CENTRAL SOUTH DAKOTA

CITY           SKY/WX    TMP DP  RH WIND       PRES   REMARKS
BUFFALO          N/A     69  50  50 VRB3      30.00F
FAITH            N/A     71  54  54 CALM      30.04S
MOBRIDGE       SUNNY     75  54  47 SE15      30.02F
$$

SDZ012>016-024>037-041>051-057-063-072>074-231700-
SOUTHWEST AND SOUTH CENTRAL SOUTH DAKOTA

CITY           SKY/WX    TMP DP  RH WIND       PRES   REMARKS
RAPID CTY ARPT SUNNY     74  51  44 N7        30.06S
PIERRE         MOSUNNY   73  55  53 S12       30.01F
CUSTER         SUNNY     78  43  28 VRB5      30.19S
ELLSWORTH AFB  SUNNY     73  50  44 N9        30.06R
PHILIP         SUNNY     79  54  41 W6        30.01F
PINE RIDGE     SUNNY     75  57  53 S10       30.07F
SPEARFISH      FAIR      73  52  46 CALM      30.10S
WINNER         FAIR      75  56  51 SW17G23   30.06F
$$

SDZ004>011-016>023-039-040-231700-
NORTHEAST SOUTH DAKOTA

CITY           SKY/WX    TMP DP  RH WIND       PRES   REMARKS
ABERDEEN       SUNNY     71  54  54 SE9       30.08F
WATERTOWN      SUNNY     69  51  52 S9        30.12F
BROOKINGS      PTSUNNY   69  51  52 S7        30.14F
SISSETON         N/A     71  59  65 SE3       30.10S
$$

SDZ017-020-022-023-036>040-048>070-231700-
SOUTHEAST SOUTH DAKOTA

CITY           SKY/WX    TMP DP  RH WIND       PRES   REMARKS
SIOUX FALLS    MOSUNNY   74  56  53 S7        30.14S
HURON          SUNNY     72  57  59 SE12      30.07F
CHAMBERLAIN    MOSUNNY   73  60  62 S10       30.07F
MITCHELL       SUNNY     74  59  59 S9        30.09F
YANKTON        SUNNY     72  57  59 VRB6      30.14F
$$

ABBREVIATIONS USED IN REMARKS
   TC - TEMPERATURE IN CELSIUS
  WCI - WIND CHILL INDEX
   HX - HEAT INDEX
  VSB - VISIBILITY





USA.gov is the U.S. government's official web portal to all federal, state and local government web resources and services.